Location: Forst
(46.9333°N, 15.4333°E)
Time: 16:00:19
(UTC+00:00)

Envisat - Pass Details

Date: 02 October 2021
Orbit: 764 x 766 km, 98.2° (Epoch: 19 October)

Event Time Altitude Azimuth Distance (km) Brightness Sun altitude
Rises 02:56:37 0° 28° (NNE) 3,241 6.9 -21.3°
Reaches altitude 10° 02:59:39 10° 46° (NE) 2,309 6.4 -20.8°
Maximum altitude 03:03:07 18° 90° (E) 1,797 5.8 -20.3°
Drops below altitude 10° 03:06:35 10° 133° (SE) 2,297 5.8 -19.7°
Sets 03:09:34 0° 152° (SSE) 3,217 6.4 -19.2°
